Probability
6 19 45 55 55 58 55 65 61 61 61 61 65 61 65 55 55 52 55 58 52 52 45 48 45 35 29 19 16 13 10 10 10 6 3 3 0 0 0 0 0 0 3
13 29 52 52 55 55 52 48 55 58 58 52 61 58 58 61 52 52 52 48 48 52 42 42 42 29 26 23 19 13 10 10 10 6 6 3 0 0 0 3 0 0 0
13 29 45 48 52 52 52 52 48 52 55 48 48 52 55 45 48 52 45 45 48 45 42 42 39 29 26 16 13 13 10 10 6 3 3 0 0 0 0 3 0 0 0
16 23 35 48 45 45 48 48 48 48 45 52 48 45 48 42 39 42 45 45 45 45 42 39 35 32 29 19 13 6 6 10 10 3 0 0 0 0 0 0 0 0 0
13 19 32 42 39 42 42 48 45 42 45 45 42 45 45 42 39 32 35 39 45 42 42 39 39 35 29 13 10 10 6 6 3 0 0 0 0 0 0 0 0 0 0
10 13 26 42 35 32 35 39 39 42 42 42 42 42 42 35 39 35 32 39 45 39 32 39 35 32 23 19 10 10 10 6 3 0 0 0 0 0 0 0 3 3 0
10 13 19 35 32 32 32 26 35 39 39 42 42 39 39 32 32 32 42 39 35 32 29 32 35 29 23 16 13 6 6 6 0 0 0 0 0 0 0 0 3 0 0
10 13 16 29 23 26 29 26 29 29 35 39 42 35 35 39 29 26 35 32 29 26 29 29 29 23 26 23 13 6 6 3 0 0 0 0 0 0 0 0 3 3 0
6 13 13 16 19 19 23 16 19 23 29 32 32 35 26 32 32 26 29 29 23 26 23 29 32 19 16 13 13 6 3 0 0 0 0 0 0 0 0 3 3 3 0
6 6 10 6 6 3 6 6 10 10 16 23 23 16 10 16 29 23 23 16 19 23 19 19 29 23 10 13 10 0 0 0 0 0 0 0 0 0 0 0 3 3 3
0 3 6 6 3 3 3 3 3 3 3 13 13 3 3 0 0 0 3 3 10 13 16 19 23 16 6 3 3 0 0 0 0 0 0 0 0 0 0 0 3 3 3
0 0 6 6 3 0 0 0 0 0 0 0 3 3 3 0 0 0 0 0 0 6 10 10 16 6 3 0 0 0 0 0 0 0 0 0 0 0 0 0 0 3 3
0 0 0 0 0 0 0 0 0 0 0 0 3 3 3 0 0 0 0 0 0 0 0 0 6 0 0 0 0 0 0 0 0 0 0 0 0 0 3 0 0 0 0
3 0 0 0 0 0 0 0 0 0 0 0 0 0 3 0 0 0 0 0 0 0 0 0 0 0 0 0 0 0 0 0 0 0 0 0 0 0 3 0 0 0 0
0 0 0 0 0 0 0 0 0 0 0 0 0 0 0 0 0 0 0 0 0 0 0 0 0 0 0 0 0 0 0 0 0 0 0 0 0 0 0 3 0 0 0
0 0 0 0 0 0 0 0 0 0 0 0 0 0 0 0 0 0 0 0 0 0 0 0 0 0 0 0 0 0 0 0 0 0 0 0 0 0 0 0 0 0 0
0 0 0 0 0 0 0 0 0 0 0 0 0 0 0 0 0 0 0 0 0 0 0 0 0 0 0 0 0 0 0 0 0 0 0 0 0 0 0 0 0 0 0
0 0 0 3 0 0 0 0 0 0 0 0 0 0 0 0 0 0 0 0 0 0 0 0 0 0 0 0 0 0 0 0 0 0 0 0 0 0 0 0 0 0 3
0 0 0 3 0 0 0 0 0 0 0 0 0 0 0 0 0 0 0 0 0 0 0 0 0 0 0 0 0 0 0 0 0 0 0 0 0 0 0 0 0 0 3
0 0 0 3 0 0 0 0 0 0 0 0 0 0 0 0 0 0 0 0 0 0 0 0 0 0 0 0 0 0 0 0 0 0 0 0 0 0 0 0 0 0 0
0 0 0 0 0 0 0 0 0 0 0 0 0 0 0 0 0 0 0 0 0 0 0 0 0 0 0 0 0 0 0 0 0 0 0 0 0 0 0 0 0 0 0
0 0 0 0 0 0 0 0 0 0 0 0 0 0 0 0 0 0 0 0 0 0 0 0 0 0 0 0 0 0 0 0 0 0 0 0 0 0 0 0 0 0 0
0 0 0 0 0 0 0 0 0 0 0 0 0 0 0 0 0 0 0 0 0 0 0 0 0 0 0 0 0 0 0 0 0 0 0 0 0 0 0 0 0 0 0
0 0 0 0 0 0 0 0 0 0 0 0 0 0 0 0 0 0 0 0 0 0 0 0 0 0 0 0 0 0 0 0 0 0 0 0 0 0 0 0 0 0 0
0 0 0 0 0 0 0 0 0 0 0 0 0 0 0 0 0 0 0 0 0 0 0 0 0 0 0 0 0 0 0 0 0 0 0 0 0 0 0 0 0 0 0
0 0 0 0 0 0 0 0 0 0 0 0 0 0 0 0 0 0 0 0 0 0 0 0 0 0 0 0 0 0 0 0 0 0 0 0 0 0 0 0 0 0 0
Height
5849 5850 5850 5851 5852 5853 5854 5854 5855 5856 5857 5858 5858 5859 5860 5861 5861 5862 5862 5863 5863 5863 5863 5864 5864 5864 5864 5864 5864 5864 5864 5864 5863 5863 5862 5862 5861 5861 5860 5859 5859 5858 5858
5846 5847 5848 5848 5849 5850 5851 5852 5853 5854 5855 5855 5856 5857 5857 5858 5859 5859 5860 5860 5861 5861 5861 5862 5862 5862 5862 5862 5862 5862 5862 5862 5861 5861 5861 5860 5860 5859 5858 5858 5857 5857 5856
5842 5843 5844 5845 5846 5847 5848 5849 5850 5851 5852 5852 5853 5854 5855 5855 5856 5857 5857 5858 5858 5859 5859 5859 5859 5859 5859 5860 5860 5860 5860 5860 5859 5859 5859 5858 5858 5857 5857 5856 5855 5855 5854
5838 5840 5841 5842 5843 5844 5845 5845 5846 5847 5848 5849 5850 5851 5851 5852 5853 5853 5854 5855 5855 5856 5856 5856 5856 5857 5857 5857 5857 5857 5857 5857 5857 5856 5856 5855 5855 5855 5854 5854 5853 5852 5852
5834 5835 5836 5837 5838 5839 5840 5841 5842 5843 5844 5845 5846 5847 5848 5848 5849 5850 5850 5851 5852 5852 5853 5853 5853 5853 5854 5854 5854 5854 5854 5854 5853 5853 5853 5853 5852 5852 5852 5851 5850 5850 5849
5829 5830 5831 5832 5833 5835 5836 5837 5838 5839 5840 5841 5842 5843 5844 5844 5845 5846 5846 5847 5848 5848 5849 5849 5850 5850 5850 5850 5850 5850 5850 5850 5850 5850 5850 5850 5849 5849 5848 5848 5847 5847 5846
5824 5825 5826 5827 5828 5829 5830 5832 5833 5834 5835 5836 5837 5838 5839 5839 5840 5841 5842 5842 5843 5844 5844 5845 5845 5846 5846 5846 5846 5846 5846 5846 5846 5846 5846 5846 5845 5845 5844 5844 5844 5843 5842
5818 5819 5820 5821 5823 5824 5825 5826 5827 5828 5829 5830 5831 5832 5833 5834 5835 5836 5837 5837 5838 5839 5839 5840 5840 5841 5841 5841 5842 5842 5842 5842 5842 5842 5842 5841 5841 5841 5840 5840 5840 5839 5838
5812 5813 5814 5815 5816 5817 5819 5820 5821 5822 5823 5824 5826 5826 5827 5828 5829 5830 5831 5831 5832 5833 5834 5834 5835 5835 5836 5836 5836 5837 5837 5837 5837 5837 5837 5836 5836 5836 5836 5836 5835 5834 5834
5805 5807 5808 5809 5810 5811 5812 5813 5815 5816 5817 5818 5819 5820 5821 5822 5823 5823 5824 5825 5826 5827 5827 5828 5829 5829 5830 5830 5830 5831 5831 5832 5832 5832 5832 5832 5831 5831 5831 5831 5830 5830 5829
5798 5799 5801 5802 5803 5804 5805 5806 5807 5809 5810 5811 5812 5813 5814 5815 5816 5816 5817 5818 5819 5820 5821 5821 5822 5823 5823 5824 5824 5825 5825 5826 5826 5826 5826 5826 5826 5826 5825 5825 5825 5824 5824
5791 5792 5793 5795 5796 5797 5798 5799 5800 5801 5802 5803 5804 5805 5806 5807 5808 5809 5810 5810 5811 5813 5814 5814 5815 5816 5816 5817 5817 5818 5818 5819 5820 5820 5820 5820 5819 5819 5819 5819 5819 5818 5818
5782 5784 5785 5786 5788 5789 5790 5790 5791 5793 5794 5795 5796 5797 5798 5799 5800 5801 5802 5803 5803 5805 5806 5807 5807 5808 5809 5809 5810 5811 5811 5812 5812 5813 5813 5813 5813 5813 5813 5813 5812 5812 5811
5774 5776 5777 5778 5779 5780 5781 5782 5783 5784 5785 5786 5787 5788 5789 5790 5791 5792 5793 5794 5795 5796 5797 5798 5799 5800 5801 5801 5802 5803 5803 5804 5804 5805 5805 5806 5806 5806 5806 5806 5805 5805 5805
5766 5767 5768 5769 5770 5771 5772 5773 5774 5774 5775 5776 5777 5778 5779 5780 5781 5782 5783 5784 5785 5786 5787 5788 5789 5791 5792 5792 5793 5794 5795 5795 5796 5797 5797 5798 5798 5798 5798 5798 5798 5798 5797
5756 5758 5758 5759 5760 5761 5762 5763 5763 5764 5765 5765 5766 5767 5768 5769 5770 5771 5772 5774 5775 5776 5777 5778 5780 5781 5782 5783 5784 5785 5786 5786 5787 5788 5788 5789 5789 5790 5790 5790 5790 5790 5789
5746 5748 5748 5749 5750 5750 5751 5752 5752 5753 5754 5754 5755 5755 5756 5757 5758 5760 5761 5762 5764 5765 5766 5767 5769 5770 5771 5772 5774 5775 5776 5777 5778 5779 5779 5780 5780 5781 5781 5781 5781 5781 5781
5736 5737 5738 5738 5739 5739 5740 5741 5741 5741 5742 5742 5743 5743 5743 5745 5746 5747 5749 5750 5752 5753 5754 5755 5757 5758 5760 5761 5763 5764 5765 5766 5768 5769 5769 5770 5771 5771 5771 5772 5772 5772 5772
5725 5726 5727 5727 5728 5728 5729 5729 5729 5729 5729 5729 5729 5730 5730 5731 5732 5734 5736 5738 5739 5740 5741 5743 5744 5746 5747 5749 5750 5752 5754 5755 5756 5757 5759 5759 5760 5761 5761 5762 5762 5763 5763
5714 5715 5715 5716 5716 5716 5716 5716 5716 5716 5716 5715 5715 5715 5716 5717 5718 5719 5721 5723 5725 5726 5727 5729 5731 5732 5734 5735 5737 5739 5741 5743 5744 5746 5747 5748 5749 5749 5750 5751 5752 5752 5753
5703 5703 5703 5703 5703 5703 5702 5702 5702 5702 5702 5701 5700 5700 5700 5701 5702 5703 5705 5707 5709 5711 5713 5715 5716 5718 5720 5721 5723 5726 5728 5730 5732 5733 5735 5736 5737 5738 5739 5740 5740 5741 5742
5691 5691 5691 5690 5689 5689 5688 5688 5688 5688 5687 5686 5685 5684 5684 5685 5686 5687 5689 5691 5693 5696 5698 5700 5701 5703 5706 5707 5708 5711 5715 5718 5719 5720 5722 5723 5724 5725 5727 5728 5729 5730 5730
5678 5678 5677 5676 5675 5675 5674 5674 5673 5672 5672 5671 5670 5669 5669 5669 5669 5670 5672 5675 5677 5680 5682 5684 5686 5688 5690 5692 5693 5695 5699 5703 5705 5708 5708 5710 5711 5712 5714 5715 5716 5717 5718
5665 5664 5663 5662 5661 5660 5659 5658 5658 5657 5657 5656 5655 5654 5653 5653 5652 5654 5656 5658 5661 5663 5666 5668 5670 5672 5674 5677 5679 5680 5683 5686 5689 5693 5695 5696 5697 5699 5700 5702 5703 5704 5705
5652 5650 5648 5647 5646 5645 5644 5643 5642 5642 5641 5641 5639 5639 5638 5638 5638 5639 5641 5642 5644 5647 5649 5652 5654 5656 5658 5661 5664 5665 5668 5670 5672 5675 5680 5683 5684 5685 5686 5688 5690 5691 5692
5638 5636 5635 5633 5632 5631 5630 5629 5627 5627 5626 5625 5624 5624 5624 5624 5624 5625 5626 5627 5629 5631 5633 5635 5638 5640 5643 5645 5648 5651 5653 5655 5658 5660 5663 5666 5669 5671 5672 5674 5676 5677 5678
Wind_Speed
16 16 17 17 17 17 16 16 16 17 17 17 17 16 16 15 15 14 14 14 13 13 13 13 13 13 12 12 12 11 11 11 11 10 10 10 10 9 9 9 9 9 9
18 18 18 18 19 18 18 18 18 18 18 18 18 18 18 17 17 17 16 16 15 15 15 15 15 15 15 14 14 13 13 13 13 13 12 12 12 11 11 11 10 10 11
21 21 21 21 21 20 20 20 20 20 20 20 20 20 20 20 19 19 19 18 18 18 17 17 17 16 17 17 16 16 15 15 15 15 15 14 14 13 13 13 12 12 12
22 22 22 23 23 23 23 22 22 22 21 21 21 22 22 22 21 21 21 20 20 20 20 19 19 18 18 18 18 18 17 17 17 16 16 15 15 15 15 15 14 14 14
23 24 24 25 25 25 25 25 25 24 24 24 23 23 23 23 23 23 23 22 22 22 22 22 21 21 21 20 20 20 20 19 18 18 18 17 17 17 17 17 17 17 16
25 26 27 27 27 27 27 26 26 26 26 26 26 26 25 25 25 25 25 25 25 24 24 24 24 24 23 23 23 22 21 21 21 20 20 19 19 19 18 19 19 19 19
28 28 28 28 29 29 29 29 29 28 28 28 28 28 28 28 28 28 27 27 27 27 27 27 27 26 26 25 25 25 23 23 23 23 22 22 21 21 20 20 21 21 21
29 29 30 30 30 30 31 31 31 31 30 30 30 30 30 30 30 30 30 30 30 29 29 29 29 29 28 28 27 26 25 25 24 24 24 24 23 23 23 22 22 23 23
30 30 31 31 31 32 32 32 32 33 33 33 33 32 32 32 32 33 32 32 32 32 32 32 31 31 30 30 29 28 27 27 26 26 26 26 25 24 24 24 24 24 24
32 32 32 33 33 33 34 34 34 34 34 34 34 34 34 34 34 34 34 34 34 34 34 33 33 33 33 32 31 31 30 29 28 28 28 27 27 26 26 26 26 25 25
35 35 35 35 35 35 35 36 36 36 36 36 36 37 37 37 36 36 36 36 36 36 35 35 35 35 35 34 34 33 32 31 30 30 30 29 29 29 28 28 28 28 27
36 37 37 37 37 37 38 38 38 38 39 39 39 39 39 39 39 39 39 39 39 38 38 37 37 36 36 35 35 35 34 34 33 33 32 31 31 31 30 30 30 30 29
37 38 38 38 39 39 39 40 40 41 41 41 41 41 41 41 41 41 41 41 41 40 40 40 39 39 38 37 37 37 36 35 35 35 35 34 33 33 32 32 31 31 31
37 38 39 40 40 40 41 41 42 43 43 43 44 44 44 44 44 44 43 43 43 43 43 43 42 41 41 40 40 39 38 38 37 37 36 36 36 35 35 34 33 33 33
38 39 39 40 41 42 42 43 43 44 45 46 46 46 46 46 46 46 46 46 45 45 45 45 44 44 43 42 42 41 41 40 39 38 38 38 37 37 37 36 36 35 34
39 40 41 41 43 43 44 45 46 46 46 47 47 47 47 47 47 47 47 47 47 47 46 46 46 46 45 44 43 43 42 42 41 40 40 40 39 39 39 38 37 36 36
40 41 41 43 44 44 45 46 47 47 47 47 48 49 49 49 49 48 48 48 48 48 48 48 48 47 47 46 45 45 44 44 43 42 42 41 41 41 40 40 40 39 38
40 41 42 44 44 45 46 47 48 48 48 49 49 50 51 51 51 50 50 50 50 50 50 50 50 50 49 49 48 47 46 45 45 44 44 44 44 43 43 43 42 41 40
41 42 43 44 45 45 46 47 48 49 50 51 52 52 53 54 53 52 53 53 52 52 52 53 52 52 51 51 50 49 48 47 47 46 46 46 45 45 45 45 44 43 42
41 42 43 44 46 46 47 48 49 50 51 52 53 54 55 56 56 55 55 55 54 54 54 54 54 53 53 53 52 51 50 50 49 48 48 47 47 47 46 46 46 45 44
42 43 44 46 47 48 49 50 50 50 51 52 53 54 55 56 57 57 57 57 56 56 55 55 55 55 55 55 54 53 52 52 51 50 50 49 49 49 48 48 47 46 45
44 45 46 47 48 49 50 51 51 51 52 52 53 54 55 56 57 58 58 58 58 57 57 57 57 57 56 56 55 54 54 53 52 52 52 51 51 50 50 49 48 47 47
45 46 47 48 49 50 51 52 52 52 52 52 52 53 54 56 56 57 57 58 58 59 58 58 58 58 57 56 56 56 55 54 55 53 52 52 52 51 51 50 50 49 48
44 46 47 48 49 50 51 52 52 52 52 51 51 51 53 54 55 55 56 56 57 58 60 59 59 59 58 57 56 56 55 55 56 54 53 53 53 52 52 52 52 51 50
44 45 46 47 48 49 50 51 51 52 51 51 50 50 51 52 53 54 54 54 55 56 57 59 58 57 57 57 56 55 56 55 55 56 54 53 53 53 53 52 52 52 51
44 45 45 46 47 48 49 50 50 51 50 49 49 48 49 50 51 51 53 53 53 53 53 54 55 55 55 55 55 55 55 54 55 55 55 54 53 52 52 52 52 51 51
Wind_Direction
242 242 242 243 243 245 246 246 247 249 250 250 250 251 252 254 256 256 258 259 259 259 260 262 265 266 270 273 274 276 277 278 280 279 283 285 285 285 285 284 283 283 285
243 244 244 244 244 246 247 247 249 250 251 251 251 251 252 254 255 256 256 258 259 260 261 262 265 267 268 271 271 273 275 277 279 281 282 282 282 283 283 282 281 281 283
244 245 246 246 246 247 248 248 250 251 252 254 254 253 254 255 256 257 257 257 258 259 261 262 265 266 268 269 269 271 274 275 277 281 282 281 278 280 282 281 280 280 280
244 246 246 247 248 248 249 250 251 252 254 255 256 255 255 256 257 258 259 259 259 260 261 262 264 266 268 269 270 271 272 273 276 277 279 278 277 279 280 279 279 279 279
247 247 247 248 249 250 251 251 252 253 255 256 257 256 256 256 258 259 259 260 261 261 261 262 263 266 268 269 271 273 271 269 272 274 275 277 276 277 279 279 278 277 278
249 249 249 250 250 251 251 252 253 254 255 256 257 257 257 257 258 258 259 260 261 262 262 263 263 266 268 269 270 273 271 269 271 272 273 273 273 274 276 277 278 278 277
251 252 252 253 253 253 253 253 254 255 256 256 256 258 258 259 259 259 259 260 261 262 263 264 264 265 268 268 270 272 270 269 268 270 273 273 272 272 274 275 276 277 277
252 252 254 254 254 255 255 255 255 256 256 256 256 257 259 259 259 259 260 261 262 263 263 264 266 267 268 268 269 269 270 270 270 271 272 272 272 272 272 273 275 276 276
252 252 253 254 255 255 256 256 257 257 257 258 258 258 258 259 260 260 260 261 262 263 264 264 265 267 268 268 268 268 268 270 271 271 271 272 270 271 272 272 274 275 275
253 253 253 255 256 257 257 258 258 258 258 259 259 260 260 260 260 261 261 261 262 263 264 265 265 265 266 268 267 267 268 269 270 270 270 269 270 271 272 272 272 274 275
254 254 254 255 256 257 258 258 259 259 259 260 260 260 260 261 261 261 261 261 261 262 263 264 265 265 265 266 267 267 267 268 268 269 270 270 270 271 271 272 272 272 273
254 255 256 256 257 258 259 259 259 260 260 261 261 261 261 261 260 260 261 261 262 262 263 263 264 265 266 266 267 267 267 267 267 267 269 269 270 271 271 272 272 272 272
255 256 257 257 258 258 259 259 260 260 261 262 262 261 261 261 261 260 261 261 262 262 262 263 263 264 266 266 267 267 267 268 267 266 267 268 269 269 270 271 272 272 272
255 256 257 258 259 259 260 260 261 262 262 262 262 261 261 261 261 261 260 261 262 262 262 262 262 263 265 265 266 267 267 268 267 267 267 267 267 268 269 269 270 272 271
257 257 258 259 259 260 260 261 262 262 262 262 262 262 262 262 261 261 261 261 261 261 262 262 263 263 264 264 265 266 266 267 267 267 266 266 267 268 268 269 269 270 271
259 259 259 260 260 261 261 262 263 264 264 263 263 263 263 262 262 262 261 261 261 261 261 262 262 262 263 263 264 265 265 266 266 265 266 266 267 268 268 269 269 270 271
259 259 260 260 261 262 262 263 264 264 264 265 264 263 263 263 262 262 261 261 261 260 261 261 262 262 262 263 263 264 264 264 265 265 265 266 267 267 268 269 269 270 270
262 261 261 261 262 263 263 264 264 265 265 265 265 264 263 262 262 261 261 261 261 261 261 261 261 261 262 262 262 262 262 262 263 264 264 266 267 267 267 268 269 270 270
263 263 262 263 264 264 265 266 266 266 265 265 265 264 263 262 261 261 260 260 260 260 261 261 261 262 262 261 261 261 261 262 262 263 264 264 266 267 267 267 268 268 269
266 265 265 265 265 266 267 267 267 267 267 267 266 266 265 263 262 262 261 261 260 260 261 261 261 262 261 261 261 260 260 260 261 262 263 264 265 266 266 267 267 267 268
267 268 268 267 267 268 269 269 269 269 269 268 268 267 266 265 263 262 261 260 260 260 261 261 261 261 262 261 260 259 260 260 260 261 263 264 265 266 266 266 266 266 267
269 269 270 269 269 269 270 270 271 271 270 268 268 267 266 265 264 262 260 259 259 259 260 260 261 261 261 261 260 259 259 260 259 261 263 264 264 264 265 265 265 266 267
272 272 271 271 270 270 271 271 271 271 271 270 269 268 267 266 265 263 261 260 259 258 259 260 261 261 260 259 259 259 259 259 259 260 261 263 263 264 264 264 265 266 266
274 273 272 272 272 271 271 272 272 272 271 271 270 269 267 265 265 264 262 261 260 259 259 259 261 261 260 259 259 259 258 259 259 259 260 261 262 263 264 263 264 265 267
274 274 273 272 273 272 273 273 273 273 273 271 270 269 267 265 265 264 263 261 260 260 260 259 260 261 260 260 259 258 258 260 261 261 260 260 260 262 263 263 264 265 266
275 275 273 273 274 274 275 275 275 274 273 271 270 269 268 266 265 265 263 261 260 259 260 260 259 260 260 259 258 258 259 261 262 262 261 260 260 261 262 263 265 265 265